Dumas, TX

10:50 PM CDT on October 19, 2017 (GMT -0500)
Moore County

Weather History for KDUX - February, 2014

Change the Weather History Date:

Thursday, February 27, 2014

  Actual Average (KDHT) Record (KDHT)
Temperature  
Mean Temperature 44 °F -  
Max Temperature 68 °F 51 °F 79 °F (2006)
Min Temperature 19 °F 23 °F 4 °F (1962)
Degree Days  
Heating Degree Days 22    
Moisture  
Dew Point 22 °F    
Average Humidity 48    
Maximum Humidity 80    
Minimum Humidity 19    
Precipitation  
Precipitation 0.00 in - - ()
Sea Level Pressure  
Sea Level Pressure 29.80 in    
Wind  
Wind Speed 9 mph (SW)    
Max Wind Speed 23 mph    
Max Gust Speed 31 mph    
Visibility 10 miles    
Events      
Averages and records for this station are not official NWS values.
T = Trace of Precipitation, MM = Missing Value Source: NWS Daily Summary

Daily Weather History Graph

Daily Weather History Graph

Search for Another Location

Airport or City:

Trip Planner

Search our weather history database for the weather conditions in past years. The results will help you decide how hot, cold, wet, or windy it might be!

Date:

Astronomy

Feb. 27, 2014 Rise Set
Actual Time 7:20 AM CST 6:41 PM CST
Civil Twilight 6:54 AM CST 7:07 PM CST
Nautical Twilight 6:25 AM CST 7:36 PM CST
Astronomical Twilight 5:55 AM CST 8:06 PM CST
Moon 5:52 AM CST (2/27) 5:11 PM CST (2/27)
Length of Visible Light 12h 12m
Length of Day
11h 20m
Waning Crescent, 4% of the Moon is Illuminated
Feb 27
Waning Crescent
Mar 1
New
Mar 8
First Quarter
Mar 16
Full
Mar 23
Last Quarter

Hourly Weather History & Observations

Time (CST) Temp. Windchill Dew Point Humidity Pressure Visibility Wind Dir Wind Speed Gust Speed Precip Events Conditions
12:15 AM 24.8 °F 19.1 °F 14.9 °F 66% 30.03 in 10.0 mi WSW 4.6 mph - N/A   Clear
12:35 AM 26.6 °F 16.8 °F 15.8 °F 64% 30.03 in 10.0 mi West 10.4 mph - N/A   Clear
12:55 AM 25.7 °F 16.4 °F 15.1 °F 64% 30.02 in 10.0 mi West 9.2 mph - N/A   Clear
1:15 AM 27.5 °F 19.3 °F 16.7 °F 64% 30.02 in 10.0 mi WSW 8.1 mph - N/A   Clear
1:35 AM 27.1 °F 18.2 °F 16.2 °F 63% 30.02 in 10.0 mi West 9.2 mph - N/A   Clear
1:55 AM 26.4 °F - 15.8 °F 64% 30.02 in 10.0 mi Calm Calm - N/A   Clear
2:15 AM 26.2 °F 17.8 °F 16.3 °F 66% 30.02 in 10.0 mi West 8.1 mph - N/A   Clear
2:35 AM 24.1 °F 15.2 °F 15.3 °F 69% 30.01 in 10.0 mi West 8.1 mph - N/A   Clear
2:55 AM 22.1 °F 13.7 °F 14.2 °F 72% 30.00 in 10.0 mi West 6.9 mph - N/A   Clear
3:15 AM 21.4 °F 11.9 °F 14.0 °F 73% 30.00 in 10.0 mi West 8.1 mph - N/A   Clear
3:35 AM 22.5 °F 12.4 °F 14.5 °F 72% 29.98 in 10.0 mi West 9.2 mph - N/A   Clear
3:55 AM 22.3 °F 12.2 °F 14.5 °F 72% 29.98 in 10.0 mi West 9.2 mph - N/A   Clear
4:15 AM 21.4 °F 11.9 °F 13.8 °F 73% 29.97 in 10.0 mi West 8.1 mph - N/A   Clear
4:35 AM 21.2 °F 12.6 °F 13.6 °F 73% 29.96 in 10.0 mi West 6.9 mph - N/A   Clear
4:55 AM 22.5 °F 16.3 °F 14.5 °F 72% 29.95 in 10.0 mi West 4.6 mph - N/A   Clear
5:15 AM 22.3 °F 14.9 °F 14.0 °F 71% 29.95 in 10.0 mi West 5.8 mph - N/A   Clear
5:35 AM 19.4 °F 11.5 °F 12.6 °F 75% 29.94 in 10.0 mi West 5.8 mph - N/A   Clear
5:55 AM 19.9 °F - 13.1 °F 75% 29.94 in 10.0 mi Calm Calm - N/A   Clear
6:15 AM 19.2 °F 10.2 °F 13.1 °F 77% 29.95 in 10.0 mi WSW 6.9 mph - N/A   Clear
6:35 AM 21.7 °F 13.2 °F 15.4 °F 77% 29.95 in 10.0 mi WSW 6.9 mph - N/A   Clear
6:55 AM 22.6 °F 14.3 °F 15.3 °F 73% 29.95 in 10.0 mi SW 6.9 mph - N/A   Clear
7:15 AM 20.3 °F 9.8 °F 14.2 °F 77% 29.93 in 10.0 mi SSW 9.2 mph - N/A   Clear
7:35 AM 19.4 °F - 14.0 °F 80% 29.93 in 10.0 mi Calm Calm - N/A   Clear
7:55 AM 22.1 °F - 15.8 °F 77% 29.94 in 10.0 mi Calm Calm - N/A   Clear
8:15 AM 26.4 °F 18.0 °F 17.6 °F 69% 29.94 in 10.0 mi SW 8.1 mph - N/A   Clear
8:35 AM 29.7 °F - 18.7 °F 64% 29.94 in 10.0 mi Calm Calm - N/A   Clear
8:55 AM 32.2 °F 23.8 °F 19.4 °F 59% 29.94 in 10.0 mi SW 10.4 mph - N/A   Clear
9:15 AM 36.9 °F 29.6 °F 21.6 °F 54% 29.93 in 10.0 mi SW 10.4 mph - N/A   Clear
9:35 AM 39.9 °F 32.1 °F 22.3 °F 49% 29.92 in 10.0 mi SSW 13.8 mph - N/A   Clear
9:55 AM 41.5 °F 34.6 °F 22.5 °F 47% 29.92 in 10.0 mi SSW 12.7 mph - N/A   Clear
10:15 AM 43.3 °F 36.5 °F 22.6 °F 44% 29.91 in 10.0 mi SSW 13.8 mph - N/A   Clear
10:35 AM 45.7 °F 39.1 °F 23.4 °F 41% 29.90 in 10.0 mi SSW 15.0 mph - N/A   Clear
10:55 AM 46.6 °F - 23.7 °F 41% 29.90 in 10.0 mi SSW 11.5 mph - N/A   Clear
11:15 AM 47.7 °F - 23.9 °F 39% 29.87 in 10.0 mi South 11.5 mph - N/A   Clear
11:40 AM 50.0 °F - 24.6 °F 37% 29.85 in 10.0 mi South 17.3 mph 20.7 mph N/A   Clear
11:55 AM 50.0 °F - 24.6 °F 37% 29.84 in 10.0 mi South 17.3 mph 20.7 mph N/A   Clear
12:15 PM 50.7 °F - 24.6 °F 36% 29.82 in 10.0 mi South 15.0 mph 21.9 mph N/A   Clear
12:35 PM 53.2 °F - 25.5 °F 34% 29.81 in 10.0 mi SSW 17.3 mph 23.0 mph N/A   Clear
12:55 PM 54.5 °F - 25.5 °F 33% 29.79 in 10.0 mi SSW 18.4 mph 24.2 mph N/A   Clear
1:15 PM 56.1 °F - 25.7 °F 31% 29.77 in 10.0 mi SSW 19.6 mph 26.5 mph N/A   Clear
1:35 PM 57.9 °F - 25.3 °F 29% 29.75 in 10.0 mi SSW 17.3 mph 26.5 mph N/A   Clear
1:55 PM 60.3 °F - 25.0 °F 26% 29.74 in 10.0 mi SW 18.4 mph 24.2 mph N/A   Clear
2:15 PM 62.1 °F - 26.1 °F 25% 29.73 in 10.0 mi SW 16.1 mph 19.6 mph N/A   Clear
2:35 PM 63.3 °F - 25.2 °F 23% 29.71 in 10.0 mi SSW 15.0 mph - N/A   Clear
2:55 PM 64.4 °F - 25.0 °F 22% 29.69 in 10.0 mi SSW 13.8 mph 19.6 mph N/A   Clear
3:15 PM 65.3 °F - 23.9 °F 21% 29.69 in 10.0 mi SSW 15.0 mph 20.7 mph N/A   Clear
3:35 PM 66.0 °F - 24.6 °F 21% 29.68 in 10.0 mi SSW 16.1 mph 20.7 mph N/A   Clear
3:55 PM 66.2 °F - 23.4 °F 20% 29.67 in 10.0 mi SSW 18.4 mph - N/A   Clear
4:20 PM 67.1 °F - 25.3 °F 21% 29.66 in 10.0 mi SW 17.3 mph - N/A   Clear
4:35 PM 67.3 °F - 25.7 °F 21% 29.64 in 10.0 mi SW 13.8 mph 23.0 mph N/A   Clear
4:55 PM 68.0 °F - 25.5 °F 20% 29.63 in 10.0 mi WSW 15.0 mph - N/A   Clear
5:15 PM 68.0 °F - 24.6 °F 19% 29.62 in 10.0 mi SW 13.8 mph 19.6 mph N/A   Clear
5:35 PM 67.6 °F - 23.5 °F 19% 29.62 in 10.0 mi SW 13.8 mph - N/A   Clear
5:55 PM 65.8 °F - 23.9 °F 20% 29.60 in 10.0 mi SW 9.2 mph - N/A   Clear
6:15 PM 65.3 °F - 25.3 °F 22% 29.60 in 10.0 mi SSW 8.1 mph - N/A   Clear
6:35 PM 59.5 °F - 24.4 °F 26% 29.59 in 10.0 mi South 9.2 mph - N/A   Clear
6:55 PM 55.2 °F - 23.2 °F 29% 29.58 in 10.0 mi SSE 10.4 mph - N/A   Clear
7:15 PM 54.0 °F - 23.0 °F 30% 29.58 in 10.0 mi SSE 10.4 mph - N/A   Clear
7:35 PM 53.8 °F - 23.4 °F 31% 29.58 in 10.0 mi ESE 9.2 mph - N/A   Clear
7:55 PM 53.4 °F - 28.2 °F 38% 29.59 in 10.0 mi ESE 12.7 mph - N/A   Clear
8:15 PM 52.0 °F - 28.2 °F 40% 29.59 in 10.0 mi ESE 15.0 mph - N/A   Clear
8:35 PM 51.6 °F - 28.2 °F 41% 29.58 in 10.0 mi SE 12.7 mph - N/A   Clear
8:55 PM 51.1 °F - 28.0 °F 41% 29.58 in 10.0 mi SE 11.5 mph - N/A   Clear
9:15 PM 50.4 °F - 27.9 °F 42% 29.58 in 10.0 mi SE 10.4 mph - N/A   Clear
9:35 PM 49.6 °F - 27.5 °F 42% 29.58 in 10.0 mi SE 10.4 mph - N/A   Clear
9:55 PM 50.4 °F - 28.0 °F 42% 29.58 in 10.0 mi ESE 10.4 mph - N/A   Clear
10:15 PM 50.7 °F - 28.4 °F 42% 29.61 in 10.0 mi SSE 9.2 mph - N/A   Scattered Clouds
10:35 PM 52.0 °F - 29.3 °F 42% 29.59 in 10.0 mi Calm Calm - N/A   Clear
10:55 PM 52.3 °F - 29.3 °F 41% 29.58 in 10.0 mi SSE 13.8 mph - N/A   Clear
11:15 PM 54.0 °F - 30.0 °F 40% 29.64 in 10.0 mi SW 23.0 mph 31.1 mph N/A   Scattered Clouds
11:35 PM 53.1 °F - 39.6 °F 60% 29.62 in 5.0 mi WSW 18.4 mph - N/A   Haze
11:55 PM 52.7 °F - 38.8 °F 59% 29.60 in 7.0 mi SW 18.4 mph 26.5 mph N/A   Mostly Cloudy